Time,TemperatureF,DewpointF,PressureIn,WindDirection,WindDirectionDegrees,WindSpeedMPH,WindSpeedGustMPH,Humidity,HourlyPrecipIn,Conditions,Clouds,dailyrainin,SoftwareType,DateUTC
2013-03-04 00:00:00,24.0,-99.9,-100.00,North,-999,-999.0,-999.0,-999,-99.99,,,0.00,,2013-03-04 07:00:00,
2013-03-04 00:52:00,24.0,-99.9,-100.00,North,-999,-999.0,-999.0,-999,-99.99,,,0.00,,2013-03-04 07:52:00,
2013-03-04 01:00:00,23.0,-99.9,-100.00,North,-999,-999.0,-999.0,-999,-99.99,,,0.01,,2013-03-04 08:00:00,
2013-03-04 01:53:00,23.0,-99.9,-100.00,North,-999,-999.0,-999.0,-999,-99.99,,,0.01,,2013-03-04 08:53:00,
2013-03-04 02:00:00,24.0,-99.9,-100.00,North,-999,-999.0,-999.0,-999,-99.99,,,0.01,,2013-03-04 09:00:00,
2013-03-04 02:52:00,24.0,-99.9,-100.00,North,-999,-999.0,-999.0,-999,-99.99,,,0.01,,2013-03-04 09:52:00,
2013-03-04 03:00:00,23.0,-99.9,-100.00,North,-999,-999.0,-999.0,-999,-99.99,,,0.01,,2013-03-04 10:00:00,
2013-03-04 04:00:00,23.0,-99.9,-100.00,North,-999,-999.0,-999.0,-999,-99.99,,,0.01,,2013-03-04 11:00:00,
2013-03-04 04:52:00,23.0,-99.9,-100.00,North,-999,-999.0,-999.0,-999,-99.99,,,0.01,,2013-03-04 11:52:00,
2013-03-04 05:00:00,22.0,-99.9,-100.00,North,-999,-999.0,-999.0,-999,-99.99,,,0.02,,2013-03-04 12:00:00,
2013-03-04 05:53:00,22.0,-99.9,-100.00,North,-999,-999.0,-999.0,-999,-99.99,,,0.02,,2013-03-04 12:53:00,
2013-03-04 06:00:00,22.0,-99.9,-100.00,North,-999,-999.0,-999.0,-999,-99.99,,,0.01,,2013-03-04 13:00:00,
2013-03-04 06:52:00,22.0,-99.9,-100.00,North,-999,-999.0,-999.0,-999,-99.99,,,0.01,,2013-03-04 13:52:00,
2013-03-04 07:00:00,21.0,-99.9,-100.00,North,-999,-999.0,-999.0,-999,-99.99,,,0.02,,2013-03-04 14:00:00,
2013-03-04 07:52:00,21.0,-99.9,-100.00,North,-999,-999.0,-999.0,-999,-99.99,,,0.02,,2013-03-04 14:52:00,
2013-03-04 08:00:00,21.0,-99.9,-100.00,North,-999,-999.0,-999.0,-999,-99.99,,,0.02,,2013-03-04 15:00:00,
2013-03-04 08:52:00,21.0,-99.9,-100.00,North,-999,-999.0,-999.0,-999,-99.99,,,0.02,,2013-03-04 15:52:00,
2013-03-04 09:00:00,25.0,-99.9,-100.00,North,-999,-999.0,-999.0,-999,-99.99,,,0.02,,2013-03-04 16:00:00,
2013-03-04 09:52:00,25.0,-99.9,-100.00,North,-999,-999.0,-999.0,-999,-99.99,,,0.02,,2013-03-04 16:52:00,
2013-03-04 10:00:00,27.0,-99.9,-100.00,North,-999,-999.0,-999.0,-999,-99.99,,,0.02,,2013-03-04 17:00:00,
2013-03-04 10:53:00,27.0,-99.9,-100.00,North,-999,-999.0,-999.0,-999,-99.99,,,0.02,,2013-03-04 17:53:00,
2013-03-04 11:00:00,24.0,-99.9,-100.00,North,-999,-999.0,-999.0,-999,-99.99,,,0.02,,2013-03-04 18:00:00,
2013-03-04 11:53:00,24.0,-99.9,-100.00,North,-999,-999.0,-999.0,-999,-99.99,,,0.02,,2013-03-04 18:53:00,
2013-03-04 12:00:00,26.0,-99.9,-100.00,North,-999,-999.0,-999.0,-999,-99.99,,,0.02,,2013-03-04 19:00:00,
2013-03-04 12:53:00,26.0,-99.9,-100.00,North,-999,-999.0,-999.0,-999,-99.99,,,0.02,,2013-03-04 19:53:00,
2013-03-04 13:00:00,25.0,-99.9,-100.00,North,-999,-999.0,-999.0,-999,-99.99,,,0.02,,2013-03-04 20:00:00,
2013-03-04 13:53:00,25.0,-99.9,-100.00,North,-999,-999.0,-999.0,-999,-99.99,,,0.02,,2013-03-04 20:53:00,
2013-03-04 14:00:00,9.0,-99.9,-100.00,North,-999,-999.0,-999.0,-999,-99.99,,,0.02,,2013-03-04 21:00:00,
2013-03-04 14:53:00,9.0,-99.9,-100.00,North,-999,-999.0,-999.0,-999,-99.99,,,0.02,,2013-03-04 21:53:00,
2013-03-04 15:00:00,11.0,-99.9,-100.00,North,-999,-999.0,-999.0,-999,-99.99,,,0.03,,2013-03-04 22:00:00,
2013-03-04 15:53:00,11.0,-99.9,-100.00,North,-999,-999.0,-999.0,-999,-99.99,,,0.03,,2013-03-04 22:53:00,
2013-03-04 16:00:00,11.0,-99.9,-100.00,North,-999,-999.0,-999.0,-999,-99.99,,,0.03,,2013-03-04 23:00:00,
2013-03-04 16:53:00,11.0,-99.9,-100.00,North,-999,-999.0,-999.0,-999,-99.99,,,0.03,,2013-03-04 23:53:00,
2013-03-04 17:00:00,10.0,-99.9,-100.00,North,-999,-999.0,-999.0,-999,-99.99,,,-99.99,,2013-03-05 00:00:00,
2013-03-04 17:52:00,10.0,-99.9,-100.00,North,-999,-999.0,-999.0,-999,-99.99,,,-99.99,,2013-03-05 00:52:00,
2013-03-04 18:00:00,8.0,-99.9,-100.00,North,-999,-999.0,-999.0,-999,-99.99,,,0.03,,2013-03-05 01:00:00,
2013-03-04 18:52:00,8.0,-99.9,-100.00,North,-999,-999.0,-999.0,-999,-99.99,,,0.03,,2013-03-05 01:52:00,
2013-03-04 19:00:00,6.0,-99.9,-100.00,North,-999,-999.0,-999.0,-999,-99.99,,,0.03,,2013-03-05 02:00:00,
2013-03-04 19:53:00,6.0,-99.9,-100.00,North,-999,-999.0,-999.0,-999,-99.99,,,0.03,,2013-03-05 02:53:00,
2013-03-04 21:00:00,3.0,-99.9,-100.00,North,-999,-999.0,-999.0,-999,-99.99,,,0.02,,2013-03-05 04:00:00,
2013-03-04 21:52:00,3.0,-99.9,-100.00,North,-999,-999.0,-999.0,-999,-99.99,,,0.02,,2013-03-05 04:52:00,